This is the latest recevied weather packets stored in our database for station/object KE5YIM-13. If no packets are shown the sender has not sent any weather packets the latest 1 day(s).
| Time | Temp. | Humidity | Pressure | Rain* | Wind** | Luminosity | Snow |
|---|---|---|---|---|---|---|---|
| 1778027633 | 17.22° C | 71% | 1011 hPa | 0 mm | - | 0 W/m² | - |
| 1778027026 | 17.22° C | 70% | 1010.9 hPa | 0 mm | - | 0 W/m² | - |
| 1778026419 | 17.78° C | 69% | 1011.1 hPa | 0 mm | - | 0 W/m² | - |
| 1778026116 | 17.78° C | 68% | 1010.7 hPa | 0 mm | - | 0 W/m² | - |
| 1778025814 | 17.78° C | 67% | 1010.6 hPa | 0 mm | - | 1 W/m² | - |
| 1778020665 | 20° C | 63% | 1010.1 hPa | 0 mm | - | 72 W/m² | - |
| 1778016120 | 20.56° C | 63% | 1009.8 hPa | 0 mm | - | 301 W/m² | - |
| 1778015514 | 20.56° C | 62% | 1009.8 hPa | 0 mm | - | 341 W/m² | - |
| 1778013999 | 21.11° C | 61% | 1009.8 hPa | 0 mm | - | 275 W/m² | - |
| 1778013091 | 21.11° C | 62% | 1009.9 hPa | 0 mm | - | 432 W/m² | - |
| 1778011877 | 21.11° C | 63% | 1009.9 hPa | 0 mm | - | 518 W/m² | - |
| 1778010968 | 21.11° C | 63% | 1010 hPa | 0 mm | - | 539 W/m² | - |
| 1778010058 | 21.67° C | 62% | 1010.2 hPa | 0 mm | - | 585 W/m² | - |
| 1778008848 | 21.67° C | 62% | 1010.5 hPa | 0 mm | - | 629 W/m² | - |
| 1778007944 | 21.67° C | 63% | 1010.8 hPa | 0 mm | - | 672 W/m² | - |
| 1778005518 | 21.67° C | 61% | 1010.8 hPa | 0 mm | - | 745 W/m² | - |
| 1778003697 | 22.22° C | 63% | 1010.9 hPa | 0 mm | - | 782 W/m² | - |
| 1778002484 | 22.22° C | 60% | 1011.2 hPa | 0 mm | - | 798 W/m² | - |
| 1778002181 | 22.22° C | 62% | 1011.2 hPa | 0 mm | - | 803 W/m² | - |
| 1778000669 | 21.67° C | 62% | 1011.2 hPa | 0 mm | - | 813 W/m² | - |
| 1777999756 | 21.67° C | 63% | 1011 hPa | 0 mm | - | 817 W/m² | - |
| 1777999453 | 21.67° C | 65% | 1011.1 hPa | 0 mm | - | 815 W/m² | - |
| 1777999151 | 21.67° C | 62% | 1011.4 hPa | 0 mm | - | 809 W/m² | - |
| 1777998850 | 21.11° C | 64% | 1011.4 hPa | 0 mm | - | 808 W/m² | - |
| 1777997033 | 21.11° C | 65% | 1011.8 hPa | 0 mm | - | 788 W/m² | - |
* Rain latest hour (hover to see other rain measurements)
** Current wind speed in m/s (hover to see current wind gust speed)